Location: Sternwarte Zollern-Alb
(48.2880°N, 8.6780°E)
Time: 03:32:49
(UTC+02:00)

ISS - Pass Details

Date: 26 April 2026
Orbit: 414 x 424 km, 51.6° (Epoch: 19 May)

Event Time Altitude Azimuth Distance (km) Brightness Sun altitude
Exits shadow 05:32:37 - 272° (W) 1,773 -1.1 -7.2°
Reaches altitude 10° 05:33:19 10° 274° (W) 1,498 -1.5 -7.1°
Maximum altitude 05:36:36 50° 351° (N) 546 -3.0 -6.7°
Drops below altitude 10° 05:39:54 10° 68° (ENE) 1,507 0.9 -6.2°
Sets 05:42:03 0° 74° (ENE) 2,375 2.1 -5.9°
